User: anonymous   Login
Location: Unspecified
(0.0000°N, 0.0000°E)
Time: 08:30:58
(UTC+00:00)
Language:

AUBIESAT-1 - Orbit

View from above orbital plane
View from above orbital plane
View from above satellite
View from above satellite

Ground track
Ground track

The orbit data is extracted from the following two-line orbital elements,

1 37854U 11061E   14296.80308321  .00012246  00000-0  78273-3 0  9426
2 37854 101.7086 030.2193 0208060 040.5996 075.5683 14.92736469161888
Epoch (UTC): 23 October 2014 19:16:26
Eccentricity: 0.0208060
inclination: 101.7086°
perigee height: 444 km
apogee height: 734 km
right ascension of ascending node: 30.2193°
argument of perigee: 40.5996°
revolutions per day: 14.92736469
mean anomaly at epoch: 75.5683°
orbit number at epoch: 16188

The dashed part of the orbit path shows where the satellite is in the earth's shadow,  

DLR